This demonstration page uses our WeatherBlox Daily Observations layout. Learn more.

Left ArrowRight Arrow

40.92501, -98.34201

Hourly Observations for August 6, 2022

Temp ( °F °C ) Dew Point ( °F °C ) Humidity (%) Winds ( mph kmh ) Pressure ( in mb ) Visibility ( mi km ) Precip ( " mm )
12:53 am 00:53 Clear 80 26.7 73 22.8 79 79 SSE 15 24 29.85 1011 10 16 0.00 0.00
1:53 am 01:53 Clear 80 26.7 73 22.8 79 79 S 14 22 29.84 1010 10 16 0.00 0.00
2:53 am 02:53 Clear 79 26.1 72 22.2 79 79 S 13 20 29.83 1010 10 16 0.00 0.00
3:53 am 03:53 Clear 79 26.1 71 21.7 77 77 S 14 22 29.82 1010 10 16 0.00 0.00
4:53 am 04:53 Partly Cloudy 78 25.6 70 21.1 76 76 S 13 20 29.82 1010 10 16 0.00 0.00
5:53 am 05:53 Mostly Cloudy 78 25.6 69 20.6 74 74 S 13 20 29.82 1010 10 16 0.00 0.00
6:53 am 06:53 Partly Cloudy 77 25 69 20.6 77 77 S 9 15 29.83 1010 10 16 0.00 0.00
7:53 am 07:53 Partly Cloudy 79 26.1 69 20.6 72 72 Calm 29.85 1011 10 16 0.00 0.00
8:53 am 08:53 Partly Cloudy 78 25.6 70 21.1 76 76 VRB 7 11 29.86 1011 10 16 0.00 0.00
9:53 am 09:53 Sunny 82 27.8 70 21.1 67 67 NNE 6 9 29.89 1012 10 16 0.00 0.00
10:53 am 10:53 Partly Cloudy 85 29.4 69 20.6 59 59 SSE 10 17 29.88 1012 10 16 0.00 0.00
11:53 am 11:53 Sunny 90 32.2 69 20.6 50 50 S 10 17 29.88 1012 10 16 0.00 0.00
12:53 pm 12:53 Sunny 92 33.3 69 20.6 47 47 S 8 13 29.88 1012 10 16 0.00 0.00
1:53 pm 13:53 Sunny 92 33.3 69 20.6 47 47 SSW 7 11 29.88 1012 10 16 0.00 0.00
2:53 pm 14:53 Sunny 94 34.4 69 20.6 44 44 SSE 7 11 29.87 1012 10 16 0.00 0.00
3:53 pm 15:53 Sunny 95 35 69 20.6 43 43 SE 6 9 29.86 1011 10 16 0.00 0.00
4:53 pm 16:53 Sunny 95 35 73 22.8 49 49 ESE 8 13 29.85 1011 10 16 0.00 0.00
5:53 pm 17:53 Sunny 95 35 73 22.8 49 49 E 10 17 29.85 1011 10 16 0.00 0.00
6:53 pm 18:53 Sunny 93 33.9 75 23.9 56 56 ENE 12 19 29.85 1011 10 16 0.00 0.00
7:53 pm 19:53 Sunny 89 31.7 76 24.4 65 65 NE 12 19 29.84 1011 10 16 0.00 0.00
8:53 pm 20:53 Clear 79 26.1 71 21.7 77 77 NE 15 24 29.88 1012 10 16 0.00 0.00
9:53 pm 21:53 Clear 76 24.4 70 21.1 82 82 NNE 9 15 29.91 1013 10 16 0.00 0.00
10:53 pm 22:53 Mostly Cloudy 75 23.9 70 21.1 84 84 NNE 8 13 29.94 1014 10 16 0.00 0.00
10:57 pm 22:57 Mostly Cloudy 75 23.9 70 21.1 84 84 NE 12 19 29.90 1012 10 16 0.00 0.00
11:53 pm 23:53 Cloudy 75 23.9 71 21.7 88 88 NE 8 13 29.94 1014 9 14 0.00 0.00

Powered by AerisWeather